| time (UTC) | temp F | wind direction | speed knots | gust knots | rain 1hr in | rain 24hr in | rain mn in | humidity % | barometer mb |
| 20260508020224 | 53 | 248 | 5.2 | 15.6 | 0.00 | 0.01 | 0.92 | 70 | 1017.8 |
| 20260508015713 | 54 | 203 | 4.3 | 12.2 | 0.00 | 0.01 | 0.92 | 70 | 1017.8 |
| 20260508015204 | 54 | 180 | 3.5 | 12.2 | 0.00 | 0.01 | 0.92 | 70 | 1017.7 |
| 20260508013632 | 54 | 180 | 7.0 | 13.0 | 0.00 | 0.01 | 0.92 | 69 | 1017.7 |
| 20260508013124 | 54 | 248 | 5.2 | 12.2 | 0.00 | 0.01 | 0.92 | 69 | 1017.8 |
| 20260508012612 | 54 | 225 | 4.3 | 9.6 | 0.00 | 0.01 | 0.92 | 69 | 1017.8 |
| 20260508012102 | 54 | 203 | 2.6 | 9.6 | 0.00 | 0.01 | 0.92 | 69 | 1017.9 |
| 20260508011552 | 54 | 248 | 6.1 | 11.3 | 0.00 | 0.01 | 0.92 | 69 | 1017.8 |
| 20260508011043 | 54 | 225 | 6.1 | 11.3 | 0.00 | 0.01 | 0.92 | 69 | 1018.0 |
| 20260508010534 | 54 | 225 | 3.5 | 11.3 | 0.00 | 0.01 | 0.92 | 69 | 1017.9 |
| 20260508010022 | 54 | 180 | 3.5 | 9.6 | 0.00 | 0.01 | 0.92 | 70 | 1017.9 |
| 20260508005512 | 54 | 248 | 3.5 | 9.6 | 0.00 | 0.01 | 0.92 | 70 | 1018.1 |
| 20260508005006 | 54 | 203 | 3.5 | 13.0 | 0.00 | 0.01 | 0.92 | 71 | 1018.2 |
| 20260508003944 | 54 | 225 | 3.5 | 7.8 | 0.00 | 0.01 | 0.92 | 68 | 1018.2 |
| 20260508003431 | 54 | 225 | 1.7 | 9.6 | 0.00 | 0.01 | 0.92 | 69 | 1018.1 |
| 20260508002922 | 54 | 270 | 1.7 | 9.6 | 0.00 | 0.01 | 0.92 | 68 | 1018.2 |
| 20260508001902 | 55 | 248 | 5.2 | 11.3 | 0.00 | 0.01 | 0.92 | 68 | 1018.3 |
| 20260508001351 | 55 | 225 | 3.5 | 13.0 | 0.00 | 0.01 | 0.92 | 67 | 1018.3 |
| 20260508000334 | 55 | 293 | 6.1 | 17.4 | 0.00 | 0.01 | 0.92 | 67 | 1018.6 |
| 20260507235310 | 55 | 270 | 1.7 | 11.3 | 0.00 | 0.01 | 0.92 | 69 | 1018.7 |
| 20260507233725 | 56 | 203 | 2.6 | 13.0 | 0.00 | 0.01 | 0.92 | 68 | 1018.5 |
| 20260507233215 | 56 | 270 | 1.7 | 12.2 | 0.00 | 0.01 | 0.92 | 67 | 1018.6 |
| 20260507232706 | 56 | 225 | 3.5 | 12.2 | 0.00 | 0.01 | 0.92 | 67 | 1018.6 |
| 20260507232155 | 56 | 293 | 6.1 | 11.3 | 0.00 | 0.01 | 0.92 | 66 | 1018.5 |
| 20260507231646 | 56 | 225 | 3.5 | 9.6 | 0.00 | 0.01 | 0.92 | 66 | 1018.5 |
| 20260507231135 | 56 | 270 | 2.6 | 9.6 | 0.00 | 0.01 | 0.92 | 65 | 1018.2 |
| 20260507230115 | 56 | 293 | 2.6 | 13.0 | 0.00 | 0.01 | 0.92 | 66 | 1018.2 |
| 20260507225605 | 56 | 248 | 2.6 | 13.9 | 0.00 | 0.01 | 0.92 | 65 | 1018.1 |
| 20260507225055 | 56 | 203 | 1.7 | 13.9 | 0.00 | 0.01 | 0.92 | 65 | 1018.1 |
| 20260507224036 | 57 | 293 | 5.2 | 13.9 | 0.00 | 0.01 | 0.92 | 65 | 1017.9 |
| 20260507223524 | 57 | 225 | 3.5 | 9.6 | 0.00 | 0.01 | 0.92 | 66 | 1017.9 |
| 20260507223015 | 57 | 248 | 3.5 | 9.6 | 0.00 | 0.01 | 0.92 | 67 | 1017.6 |
| 20260507222505 | 57 | 0 | 1.7 | 6.1 | 0.00 | 0.01 | 0.92 | 68 | 1017.3 |
| 20260507221956 | 57 | 225 | 1.7 | 9.6 | 0.00 | 0.01 | 0.92 | 69 | 1016.9 |
| 20260507221444 | 56 | 203 | 3.5 | 9.6 | 0.00 | 0.01 | 0.92 | 69 | 1016.6 |
| 20260507220934 | 57 | 293 | 1.7 | 9.6 | 0.00 | 0.01 | 0.92 | 68 | 1016.5 |
| 20260507220425 | 57 | 225 | 3.5 | 7.0 | 0.00 | 0.01 | 0.92 | 69 | 1016.4 |
| 20260507215914 | 57 | 248 | 1.7 | 7.0 | 0.00 | 0.01 | 0.92 | 69 | 1016.5 |
| 20260507214854 | 57 | 248 | 1.7 | 7.0 | 0.00 | 0.01 | 0.92 | 68 | 1016.3 |
| 20260507214344 | 57 | 225 | 1.7 | 7.0 | 0.00 | 0.01 | 0.92 | 68 | 1016.1 |
| 20260507213834 | 57 | 180 | 1.7 | 6.1 | 0.00 | 0.01 | 0.92 | 68 | 1015.8 |
| 20260507213324 | 57 | 270 | 2.6 | 6.1 | 0.00 | 0.01 | 0.92 | 67 | 1016.0 |
| 20260507212814 | 57 | 0 | 2.6 | 7.8 | 0.00 | 0.01 | 0.92 | 67 | 1016.3 |
| 20260507212306 | 57 | 225 | 1.7 | 9.6 | 0.00 | 0.01 | 0.92 | 67 | 1016.3 |
| 20260507211752 | 57 | 203 | 0.9 | 9.6 | 0.00 | 0.01 | 0.92 | 67 | 1016.5 |
| 20260507210733 | 57 | 225 | 1.7 | 5.2 | 0.00 | 0.01 | 0.92 | 67 | 1016.4 |
| 20260507210222 | 57 | 270 | 2.6 | 7.8 | 0.00 | 0.01 | 0.92 | 67 | 1016.5 |
| 20260507205659 | 57 | 158 | 2.6 | 9.6 | 0.00 | 0.01 | 0.92 | 67 | 1016.1 |
| 20260507205202 | 57 | 113 | 3.5 | 9.6 | 0.00 | 0.01 | 0.92 | 67 | 1016.3 |
| 20260507204640 | 58 | 225 | 3.5 | 11.3 | 0.00 | 0.01 | 0.92 | 67 | 1016.4 |
| 20260507204128 | 58 | 225 | 5.2 | 11.3 | 0.00 | 0.01 | 0.92 | 66 | 1016.4 |
| 20260507202558 | 58 | 270 | 5.2 | 15.6 | 0.00 | 0.01 | 0.92 | 66 | 1016.7 |
| 20260507202047 | 58 | 225 | 3.5 | 15.6 | 0.00 | 0.01 | 0.92 | 67 | 1016.9 |
| 20260507201538 | 58 | 225 | 7.0 | 14.8 | 0.00 | 0.01 | 0.92 | 66 | 1016.7 |
| 20260507200008 | 58 | 225 | 5.2 | 13.0 | 0.00 | 0.01 | 0.92 | 66 | 1016.4 |
| 20260507195458 | 58 | 225 | 3.5 | 13.0 | 0.00 | 0.01 | 0.92 | 66 | 1016.0 |
| 20260507194438 | 58 | 180 | 3.5 | 12.2 | 0.00 | 0.01 | 0.92 | 66 | 1015.8 |
| 20260507193927 | 59 | 225 | 5.2 | 12.2 | 0.00 | 0.01 | 0.92 | 66 | 1015.6 |
| 20260507193417 | 59 | 270 | 5.2 | 12.2 | 0.00 | 0.01 | 0.92 | 65 | 1015.4 |
| 20260507192906 | 59 | 158 | 2.6 | 9.6 | 0.00 | 0.01 | 0.92 | 64 | 1015.4 |
| 20260507191847 | 59 | 113 | 3.5 | 9.6 | 0.00 | 0.01 | 0.92 | 65 | 1015.4 |
| 20260507191336 | 59 | 225 | 4.3 | 9.6 | 0.00 | 0.01 | 0.92 | 65 | 1014.8 |
| 20260507190828 | 59 | 270 | 3.5 | 9.6 | 0.00 | 0.01 | 0.92 | 64 | 1014.8 |
| 20260507190316 | 59 | 180 | 1.7 | 7.0 | 0.00 | 0.01 | 0.92 | 64 | 1014.5 |
| 20260507185807 | 59 | 248 | 1.7 | 14.8 | 0.00 | 0.01 | 0.92 | 63 | 1015.1 |
| 20260507185255 | 59 | 225 | 0.9 | 14.8 | 0.00 | 0.01 | 0.92 | 62 | 1015.3 |
| 20260507184746 | 59 | 225 | 2.6 | 13.9 | 0.00 | 0.01 | 0.92 | 61 | 1015.0 |
| 20260507184236 | 59 | 225 | 4.3 | 11.3 | 0.00 | 0.01 | 0.92 | 61 | 1015.2 |
| 20260507183727 | 60 | 248 | 1.7 | 14.8 | 0.00 | 0.01 | 0.92 | 60 | 1015.9 |
| 20260507183216 | 60 | 158 | 3.5 | 14.8 | 0.00 | 0.01 | 0.92 | 60 | 1015.6 |
| 20260507182713 | 60 | 225 | 1.7 | 9.6 | 0.00 | 0.01 | 0.92 | 61 | 1016.1 |
| 20260507182152 | 60 | 248 | 4.3 | 13.0 | 0.00 | 0.01 | 0.92 | 61 | 1016.2 |
| 20260507181642 | 60 | 203 | 1.7 | 13.0 | 0.00 | 0.01 | 0.92 | 61 | 1016.7 |
| 20260507181131 | 60 | 248 | 6.1 | 13.0 | 0.00 | 0.01 | 0.92 | 60 | 1016.7 |
| 20260507180625 | 60 | 248 | 4.3 | 13.9 | 0.00 | 0.01 | 0.92 | 61 | 1016.7 |
| 20260507175605 | 60 | 203 | 3.5 | 13.0 | 0.00 | 0.01 | 0.92 | 60 | 1016.7 |
| 20260507175055 | 60 | 248 | 7.0 | 13.0 | 0.00 | 0.01 | 0.92 | 60 | 1016.8 |
| 20260507173524 | 60 | 158 | 6.1 | 15.6 | 0.00 | 0.01 | 0.92 | 59 | 1017.0 |
| 20260507173014 | 60 | 180 | 3.5 | 13.9 | 0.00 | 0.01 | 0.92 | 59 | 1017.3 |
| 20260507172504 | 60 | 23 | 4.3 | 13.9 | 0.00 | 0.01 | 0.92 | 60 | 1017.0 |
| 20260507171954 | 60 | 248 | 2.6 | 20.0 | 0.00 | 0.01 | 0.92 | 59 | 1016.9 |
| 20260507171444 | 59 | 225 | 7.0 | 20.0 | 0.00 | 0.01 | 0.92 | 59 | 1016.8 |
| 20260507170934 | 60 | 270 | 7.0 | 15.6 | 0.00 | 0.01 | 0.92 | 60 | 1016.6 |
| 20260507170424 | 59 | 203 | 4.3 | 14.8 | 0.00 | 0.01 | 0.92 | 60 | 1016.4 |
| 20260507165913 | 59 | 0 | 7.0 | 14.8 | 0.00 | 0.01 | 0.92 | 60 | 1016.7 |
| 20260507165404 | 59 | 248 | 6.1 | 13.9 | 0.00 | 0.01 | 0.92 | 60 | 1016.8 |
| 20260507164853 | 59 | 338 | 2.6 | 14.8 | 0.00 | 0.01 | 0.92 | 61 | 1016.7 |
| 20260507164343 | 59 | 248 | 7.8 | 14.8 | 0.00 | 0.01 | 0.92 | 60 | 1016.3 |
| 20260507163833 | 59 | 248 | 7.8 | 13.9 | 0.00 | 0.01 | 0.92 | 60 | 1016.5 |
| 20260507163323 | 59 | 248 | 3.5 | 15.6 | 0.00 | 0.01 | 0.92 | 61 | 1016.4 |
| 20260507162813 | 59 | 293 | 6.1 | 15.6 | 0.00 | 0.01 | 0.92 | 61 | 1016.6 |
| 20260507162307 | 59 | 248 | 4.3 | 12.2 | 0.00 | 0.01 | 0.92 | 62 | 1016.3 |
| 20260507161752 | 59 | 270 | 6.1 | 12.2 | 0.00 | 0.01 | 0.92 | 61 | 1016.5 |
| 20260507161243 | 59 | 203 | 8.7 | 12.2 | 0.00 | 0.01 | 0.92 | 62 | 1016.7 |
| 20260507160222 | 58 | 225 | 3.5 | 7.8 | 0.00 | 0.01 | 0.92 | 65 | 1016.8 |
| 20260507155712 | 58 | 225 | 2.6 | 7.8 | 0.00 | 0.01 | 0.92 | 65 | 1016.8 |
| 20260507155202 | 58 | 270 | 1.7 | 9.6 | 0.00 | 0.01 | 0.92 | 65 | 1016.8 |
| 20260507154651 | 58 | 270 | 3.5 | 9.6 | 0.00 | 0.01 | 0.92 | 65 | 1017.2 |
| 20260507154141 | 58 | 203 | 1.7 | 9.6 | 0.00 | 0.01 | 0.92 | 66 | 1017.6 |
| 20260507153123 | 57 | 270 | 1.7 | 7.0 | 0.00 | 0.01 | 0.92 | 66 | 1017.4 |
| 20260507152612 | 57 | 293 | 3.5 | 7.0 | 0.00 | 0.01 | 0.92 | 66 | 1017.2 |
| 20260507152100 | 57 | 270 | 3.5 | 6.1 | 0.00 | 0.01 | 0.92 | 67 | 1017.2 |
| 20260507151551 | 57 | 225 | 3.5 | 6.1 | 0.00 | 0.01 | 0.92 | 66 | 1017.1 |
| 20260507151041 | 58 | 225 | 1.7 | 9.6 | 0.00 | 0.01 | 0.92 | 66 | 1017.3 |
| 20260507150538 | 58 | 315 | 3.5 | 9.6 | 0.00 | 0.01 | 0.92 | 65 | 1017.4 |
| 20260507150020 | 58 | 248 | 2.6 | 9.6 | 0.00 | 0.01 | 0.92 | 66 | 1017.3 |
| 20260507145001 | 58 | 225 | 3.5 | 12.2 | 0.00 | 0.01 | 0.92 | 65 | 1016.8 |
| 20260507144451 | 58 | 293 | 5.2 | 12.2 | 0.00 | 0.01 | 0.92 | 65 | 1017.3 |
| 20260507143940 | 58 | 270 | 4.3 | 11.3 | 0.00 | 0.01 | 0.92 | 66 | 1017.2 |
| 20260507143430 | 58 | 270 | 3.5 | 11.3 | 0.00 | 0.01 | 0.92 | 65 | 1017.2 |
| 20260507142921 | 58 | 23 | 4.3 | 11.3 | 0.00 | 0.01 | 0.92 | 65 | 1016.9 |
| 20260507142410 | 58 | 180 | 4.3 | 7.0 | 0.00 | 0.01 | 0.92 | 65 | 1017.0 |
| 20260507141900 | 58 | 248 | 3.5 | 7.0 | 0.00 | 0.01 | 0.92 | 65 | 1017.2 |
| 20260507141350 | 58 | 270 | 3.5 | 6.1 | 0.00 | 0.01 | 0.92 | 66 | 1017.8 |
| 20260507140843 | 58 | 293 | 1.7 | 6.1 | 0.00 | 0.01 | 0.92 | 68 | 1017.3 |
| 20260507140329 | 58 | 180 | 1.7 | 6.1 | 0.00 | 0.01 | 0.92 | 69 | 1017.2 |
| 20260507135819 | 58 | 203 | 3.5 | 6.1 | 0.00 | 0.01 | 0.92 | 68 | 1017.2 |
| 20260507135309 | 58 | 203 | 2.6 | 6.1 | 0.00 | 0.01 | 0.92 | 68 | 1017.4 |
| 20260507134249 | 58 | 248 | 1.7 | 7.0 | 0.00 | 0.01 | 0.92 | 69 | 1017.4 |
| 20260507133741 | 58 | 293 | 3.5 | 7.0 | 0.00 | 0.01 | 0.92 | 69 | 1017.8 |
| 20260507133229 | 58 | 248 | 1.7 | 6.1 | 0.00 | 0.01 | 0.92 | 69 | 1017.9 |
| 20260507132719 | 58 | 248 | 0.0 | 6.1 | 0.00 | 0.01 | 0.92 | 69 | 1017.7 |
| 20260507132209 | 58 | 158 | 1.7 | 6.1 | 0.00 | 0.01 | 0.92 | 68 | 1017.5 |
| 20260507131658 | 58 | 248 | 1.7 | 6.1 | 0.00 | 0.01 | 0.92 | 68 | 1017.4 |
| 20260507131149 | 58 | 270 | 3.5 | 7.8 | 0.00 | 0.01 | 0.92 | 69 | 1017.1 |
| 20260507130638 | 58 | 270 | 1.7 | 7.8 | 0.00 | 0.01 | 0.92 | 70 | 1016.8 |
| 20260507130128 | 58 | 225 | 1.7 | 6.1 | 0.00 | 0.01 | 0.92 | 70 | 1016.7 |
| 20260507125618 | 58 | 225 | 0.9 | 6.1 | 0.00 | 0.01 | 0.92 | 71 | 1016.5 |
| 20260507124558 | 58 | 225 | 1.7 | 7.8 | 0.00 | 0.01 | 0.92 | 70 | 1017.0 |
| 20260507124047 | 59 | 248 | 1.7 | 6.1 | 0.00 | 0.01 | 0.92 | 70 | 1016.3 |
| 20260507123538 | 59 | 158 | 1.7 | 6.1 | 0.00 | 0.01 | 0.92 | 70 | 1016.0 |
| 20260507123027 | 59 | 203 | 2.6 | 9.6 | 0.00 | 0.01 | 0.92 | 69 | 1015.9 |
| 20260507122517 | 58 | 270 | 2.6 | 9.6 | 0.00 | 0.01 | 0.92 | 70 | 1016.1 |
| 20260507122008 | 58 | 225 | 1.7 | 7.8 | 0.00 | 0.01 | 0.92 | 72 | 1016.1 |
| 20260507121458 | 58 | 248 | 1.7 | 7.8 | 0.00 | 0.01 | 0.92 | 72 | 1016.1 |
| 20260507120436 | 58 | 248 | 1.7 | 12.2 | 0.00 | 0.01 | 0.92 | 72 | 1015.4 |
| 20260507115927 | 58 | 315 | 1.7 | 11.3 | 0.00 | 0.01 | 0.92 | 73 | 1015.2 |
| 20260507115417 | 58 | 203 | 2.6 | 11.3 | 0.00 | 0.01 | 0.92 | 73 | 1015.1 |
| 20260507114907 | 58 | 248 | 5.2 | 11.3 | 0.00 | 0.01 | 0.92 | 74 | 1015.0 |
| 20260507114356 | 58 | 248 | 4.3 | 9.6 | 0.00 | 0.01 | 0.92 | 74 | 1014.7 |
| 20260507113336 | 58 | 248 | 4.3 | 9.6 | 0.00 | 0.01 | 0.92 | 76 | 1013.6 |
| 20260507112826 | 59 | 293 | 3.5 | 9.6 | 0.00 | 0.01 | 0.92 | 75 | 1013.5 |
| 20260507112315 | 59 | 225 | 3.5 | 9.6 | 0.00 | 0.01 | 0.92 | 74 | 1013.4 |
| 20260507111806 | 59 | 203 | 3.5 | 9.6 | 0.00 | 0.01 | 0.92 | 74 | 1013.6 |
| 20260507110745 | 60 | 315 | 3.5 | 12.2 | 0.00 | 0.01 | 0.92 | 78 | 1013.8 |
| 20260507105726 | 59 | 225 | 4.3 | 13.9 | 0.00 | 0.01 | 0.92 | 80 | 1013.8 |
| 20260507105215 | 59 | 203 | 2.6 | 13.0 | 0.00 | 0.01 | 0.92 | 80 | 1013.6 |
| 20260507104705 | 60 | 225 | 6.1 | 15.6 | 0.00 | 0.01 | 0.92 | 79 | 1013.5 |
| 20260507104155 | 60 | 248 | 3.5 | 15.6 | 0.00 | 0.01 | 0.92 | 78 | 1013.5 |
| 20260507103644 | 60 | 45 | 7.0 | 13.9 | 0.00 | 0.01 | 0.92 | 78 | 1014.2 |
| 20260507103135 | 60 | 203 | 3.5 | 13.0 | 0.00 | 0.01 | 0.92 | 78 | 1014.6 |
| 20260507102624 | 60 | 203 | 7.0 | 13.9 | 0.00 | 0.01 | 0.92 | 78 | 1014.5 |
| 20260507102114 | 61 | 248 | 7.0 | 13.9 | 0.00 | 0.01 | 0.92 | 79 | 1014.3 |
| 20260507101607 | 61 | 113 | 6.1 | 13.0 | 0.00 | 0.01 | 0.92 | 80 | 1014.7 |
| 20260507101054 | 62 | 135 | 7.0 | 13.0 | 0.00 | 0.01 | 0.92 | 82 | 1014.8 |
| 20260507100546 | 62 | 180 | 3.5 | 12.2 | 0.00 | 0.01 | 0.92 | 85 | 1014.4 |
| 20260507100035 | 62 | 135 | 5.2 | 12.2 | 0.00 | 0.01 | 0.92 | 87 | 1014.6 |
| 20260507095524 | 62 | 68 | 5.2 | 13.9 | 0.00 | 0.01 | 0.92 | 88 | 1014.4 |
| 20260507095015 | 62 | 203 | 3.5 | 13.9 | 0.00 | 0.01 | 0.92 | 88 | 1014.7 |
| 20260507093954 | 62 | 270 | 5.2 | 13.9 | 0.00 | 0.01 | 0.92 | 88 | 1014.6 |
| 20260507093443 | 62 | 225 | 3.5 | 13.9 | 0.00 | 0.01 | 0.92 | 89 | 1014.8 |
| 20260507092934 | 62 | 45 | 3.5 | 9.6 | 0.00 | 0.01 | 0.92 | 90 | 1015.3 |
| 20260507092424 | 62 | 203 | 1.7 | 9.6 | 0.00 | 0.01 | 0.92 | 91 | 1015.6 |
| 20260507091913 | 62 | 248 | 1.7 | 12.2 | 0.00 | 0.01 | 0.92 | 90 | 1015.9 |
| 20260507091403 | 62 | 45 | 6.1 | 12.2 | 0.00 | 0.01 | 0.92 | 90 | 1016.6 |
| 20260507090853 | 62 | 270 | 3.5 | 11.3 | 0.00 | 0.01 | 0.92 | 89 | 1015.6 |
| 20260507090343 | 62 | 248 | 1.7 | 7.8 | 0.00 | 0.01 | 0.92 | 89 | 1015.4 |
| 20260507085832 | 62 | 203 | 1.7 | 9.6 | 0.00 | 0.01 | 0.92 | 89 | 1015.9 |
| 20260507085323 | 63 | 203 | 2.6 | 9.6 | 0.00 | 0.01 | 0.92 | 88 | 1015.8 |
| 20260507084812 | 62 | 180 | 2.6 | 9.6 | 0.00 | 0.01 | 0.92 | 89 | 1015.4 |
| 20260507084302 | 63 | 225 | 2.6 | 11.3 | 0.00 | 0.01 | 0.92 | 89 | 1015.2 |
| 20260507083753 | 63 | 203 | 3.5 | 13.0 | 0.00 | 0.01 | 0.92 | 88 | 1015.0 |
| 20260507083242 | 63 | 135 | 3.5 | 13.0 | 0.00 | 0.01 | 0.92 | 88 | 1015.0 |
| 20260507082731 | 63 | 338 | 1.7 | 11.3 | 0.00 | 0.01 | 0.92 | 89 | 1014.7 |
| 20260507082223 | 63 | 158 | 4.3 | 9.6 | 0.00 | 0.01 | 0.92 | 89 | 1014.6 |
| 20260507081711 | 64 | 180 | 2.6 | 7.8 | 0.00 | 0.01 | 0.92 | 90 | 1014.6 |
| 20260507080652 | 63 | 225 | 1.7 | 7.8 | 0.00 | 0.01 | 0.92 | 90 | 1014.6 |
| 20260507080141 | 63 | 203 | 2.6 | 7.8 | 0.01 | 0.01 | 0.92 | 90 | 1014.6 |
| 20260507075633 | 64 | 225 | 1.7 | 7.8 | 0.01 | 0.01 | 0.92 | 90 | 1014.5 |
| 20260507075121 | 64 | 293 | 1.7 | 11.3 | 0.01 | 0.01 | 0.92 | 89 | 1014.7 |
| 20260507074612 | 64 | 158 | 4.3 | 11.3 | 0.01 | 0.01 | 0.92 | 89 | 1014.8 |
| 20260507074101 | 64 | 203 | 2.6 | 7.8 | 0.01 | 0.01 | 0.92 | 88 | 1014.6 |
| 20260507073551 | 64 | 248 | 2.6 | 7.0 | 0.01 | 0.01 | 0.92 | 89 | 1014.4 |
| 20260507073041 | 64 | 203 | 2.6 | 7.0 | 0.01 | 0.01 | 0.92 | 89 | 1014.6 |
| 20260507072533 | 64 | 203 | 1.7 | 7.0 | 0.01 | 0.01 | 0.92 | 89 | 1015.1 |
| 20260507072020 | 65 | 225 | 2.6 | 7.0 | 0.01 | 0.01 | 0.92 | 89 | 1014.8 |
| 20260507071513 | 65 | 158 | 1.7 | 6.1 | 0.01 | 0.01 | 0.92 | 89 | 1015.0 |
| 20260507071001 | 65 | 248 | 1.7 | 6.1 | 0.01 | 0.01 | 0.92 | 90 | 1015.0 |
| 20260507070450 | 65 | 203 | 1.7 | 5.2 | 0.01 | 0.01 | 0.92 | 89 | 1015.0 |
| 20260507065941 | 65 | 248 | 1.7 | 5.2 | 0.00 | 0.00 | 0.91 | 90 | 1015.0 |
| 20260507065430 | 65 | 225 | 1.7 | 3.5 | 0.00 | 0.00 | 0.91 | 91 | 1015.1 |
| 20260507064920 | 65 | 270 | 0.0 | 3.5 | 0.00 | 0.00 | 0.91 | 91 | 1015.1 |
| 20260507063859 | 65 | 135 | 0.9 | 3.5 | 0.00 | 0.00 | 0.91 | 92 | 1014.8 |
| 20260507063347 | 65 | 158 | 0.9 | 0.0 | 0.00 | 0.00 | 0.91 | 91 | 1014.5 |
| 20260507063151 | 65 | 225 | 2.6 | 0.0 | 0.00 | 0.00 | 0.91 | 91 | 1014.7 |
| 20260507062529 | 65 | 225 | 0.9 | 5.2 | 0.01 | 0.92 | 0.91 | 91 | 1014.8 |
| 20260507062019 | 65 | 180 | 1.7 | 5.2 | 0.01 | 0.92 | 0.91 | 91 | 1014.0 |
| 20260507061512 | 65 | 23 | 2.6 | 5.2 | 0.01 | 0.92 | 0.91 | 91 | 1013.6 |
| 20260507060448 | 66 | 203 | 1.7 | 5.2 | 0.01 | 0.92 | 0.91 | 94 | 1014.7 |
| 20260507055938 | 66 | 203 | 0.9 | 5.2 | 0.01 | 0.92 | 0.91 | 94 | 1014.5 |
| 20260507055428 | 66 | 225 | 0.9 | 1.7 | 0.01 | 0.92 | 0.91 | 94 | 1014.9 |
| 20260507054918 | 66 | 225 | 0.0 | 1.7 | 0.01 | 0.92 | 0.91 | 94 | 1014.8 |
| 20260507053347 | 66 | 23 | 0.0 | 3.5 | 0.00 | 0.91 | 0.90 | 94 | 1013.7 |
| 20260507052837 | 66 | 68 | 0.9 | 5.2 | 0.02 | 0.91 | 0.90 | 94 | 1013.5 |
| 20260507051818 | 66 | 23 | 1.7 | 3.5 | 0.04 | 0.91 | 0.90 | 93 | 1014.3 |
| 20260507050757 | 66 | 23 | 2.6 | 7.0 | 0.04 | 0.91 | 0.90 | 93 | 1015.3 |
| 20260507050247 | 66 | 23 | 1.7 | 7.0 | 0.04 | 0.91 | 0.90 | 92 | 1015.1 |
| 20260507045737 | 67 | 45 | 1.7 | 5.2 | 0.04 | 0.91 | 0.90 | 92 | 1014.8 |
| 20260507045227 | 67 | 113 | 0.9 | 3.5 | 0.05 | 0.91 | 0.90 | 91 | 1015.0 |
| 20260507044718 | 67 | 23 | 0.0 | 3.5 | 0.11 | 0.91 | 0.90 | 90 | 1014.8 |
| 20260507044208 | 67 | 68 | 1.7 | 3.5 | 0.34 | 0.91 | 0.90 | 89 | 1013.2 |
| 20260507043146 | 67 | 180 | 1.7 | 3.5 | 0.70 | 0.90 | 0.89 | 90 | 1013.1 |
| 20260507042637 | 67 | 180 | 0.9 | 5.2 | 0.72 | 0.89 | 0.87 | 90 | 1013.8 |
| 20260507042126 | 67 | 248 | 1.7 | 5.2 | 0.86 | 0.87 | 0.86 | 89 | 1013.6 |
| 20260507041616 | 67 | 248 | 0.9 | 3.5 | 0.86 | 0.87 | 0.86 | 90 | 1012.9 |
| 20260507040556 | 67 | 113 | 1.7 | 6.1 | 0.86 | 0.87 | 0.86 | 89 | 1011.7 |
| 20260507040055 | 67 | 225 | 0.0 | 6.1 | 0.86 | 0.87 | 0.86 | 90 | 1012.8 |
| 20260507035536 | 67 | 158 | 2.6 | 9.6 | 0.86 | 0.87 | 0.86 | 90 | 1012.7 |
| 20260507034515 | 68 | 270 | 5.2 | 13.0 | 0.72 | 0.73 | 0.77 | 92 | 1012.1 |
| 20260507033456 | 70 | 248 | 7.0 | 13.9 | 0.26 | 0.27 | 0.26 | 90 | 1011.3 |
| 20260507032945 | 71 | 203 | 2.6 | 6.1 | 0.17 | 0.18 | 0.19 | 88 | 1011.4 |
| 20260507032435 | 73 | 158 | 1.7 | 9.6 | 0.06 | 0.07 | 0.06 | 83 | 1011.4 |
| 20260507031925 | 74 | 203 | 2.6 | 9.6 | 0.00 | 0.01 | 0.00 | 80 | 1011.4 |
| 20260507031415 | 74 | 203 | 2.6 | 9.6 | 0.00 | 0.01 | 0.00 | 79 | 1011.7 |
| 20260507030904 | 75 | 248 | 3.5 | 9.6 | 0.00 | 0.01 | 0.00 | 79 | 1011.5 |
| 20260507025334 | 75 | 135 | 1.7 | 7.8 | 0.00 | 0.01 | 0.01 | 84 | 1012.0 |
| 20260507024315 | 75 | 203 | 1.7 | 3.5 | 0.00 | 0.01 | 0.01 | 83 | 1012.5 |
| 20260507023810 | 75 | 248 | 0.9 | 3.5 | 0.00 | 0.01 | 0.01 | 84 | 1011.9 |
| 20260507023254 | 76 | 0 | 1.7 | 3.5 | 0.00 | 0.01 | 0.01 | 83 | 1012.1 |
| 20260507022743 | 76 | 225 | 0.0 | 3.5 | 0.00 | 0.01 | 0.01 | 83 | 1012.7 |
| 20260507022233 | 76 | 315 | 1.7 | 5.2 | 0.00 | 0.01 | 0.01 | 83 | 1012.7 |
| 20260507021723 | 76 | 293 | 1.7 | 5.2 | 0.00 | 0.01 | 0.01 | 82 | 1012.9 |
| 20260507021212 | 77 | 203 | 1.7 | 3.5 | 0.00 | 0.01 | 0.01 | 81 | 1013.0 |